FW7645 Weather Reports


time (UTC)temp
C
wind
direction
speed
KPH
gust
KPH
rain 1hr
cm
rain 24hr
cm
rain mn
cm
humidity
%
barometer
mb
20260509064539 8 0 0.0 0.0 0.03 0.10 0.03 90 1011.5
20260509063052 8 0 0.0 0.0 0.03 0.10 0.03 90 1011.7
20260509061541 8 0 0.0 1.6 0.03 0.10 0.03 90 1012.0
20260509060101 8 0 0.0 0.0 0.03 0.10 0.03 89 1012.2
20260509054539 8 0 0.0 0.0 0.00 0.08 0.00 89 1012.1
20260509053051 9 0 0.0 0.0 0.00 0.08 0.00 88 1012.4
20260509051547 9 0 0.0 0.0 0.00 0.08 0.00 88 1012.9
20260509050035 9 0 0.0 0.0 0.00 0.08 0.00 87 1013.0
20260509044540 9 0 0.0 0.0 0.00 0.08 0.00 87 1013.1
20260509043045 10 0 0.0 0.0 0.00 0.08 0.00 87 1012.9
20260509041535 10 0 0.0 0.0 0.00 0.08 0.00 86 1012.9
20260509040055 10 0 0.0 0.0 0.00 0.08 0.00 85 1013.0
20260509034534 10 0 0.0 0.0 0.00 0.08 0.08 84 1013.1
20260509033107 10 0 0.0 0.0 0.00 0.08 0.08 83 1013.0
20260509031543 10 0 0.0 0.0 0.00 0.08 0.08 82 1012.8
20260509030039 10 0 0.0 0.0 0.00 0.08 0.08 80 1012.8
20260509024540 10 0 0.0 0.0 0.00 0.08 0.08 81 1013.1
20260509023037 10 0 0.0 0.0 0.00 0.08 0.08 79 1013.1
20260509021537 10 0 0.0 0.0 0.00 0.08 0.08 78 1013.1
20260509020037 11 0 0.0 1.6 0.00 0.08 0.08 78 1012.8
20260509014538 11 136 0.0 3.2 0.00 0.08 0.08 74 1012.4
20260509013036 12 122 0.0 6.4 0.00 0.08 0.08 70 1013.0
20260509011544 12 0 0.0 4.8 0.00 0.08 0.08 66 1012.7
20260509010039 12 243 0.0 4.8 0.00 0.08 0.08 65 1012.0
20260509004534 12 103 0.0 3.2 0.00 0.08 0.08 65 1012.0
20260509003040 12 141 0.0 3.2 0.00 0.08 0.08 65 1012.0
20260509001537 12 0 0.0 3.2 0.00 0.08 0.08 64 1012.0
20260509000037 13 0 0.0 4.8 0.00 0.08 0.08 63 1012.0
20260508234537 13 115 0.0 8.0 0.00 0.08 0.08 63 1011.8
20260508233038 13 107 0.0 12.9 0.00 0.08 0.08 63 1011.8
20260508231538 13 103 0.0 8.0 0.00 0.08 0.08 63 1011.6
20260508230035 13 341 0.0 4.8 0.00 0.08 0.08 63 1011.6
20260508224545 14 124 1.6 11.3 0.00 0.08 0.08 62 1011.4
20260508223037 15 139 0.0 8.0 0.00 0.08 0.08 63 1011.5
20260508221534 14 0 0.0 3.2 0.00 0.08 0.08 68 1011.6
20260508220046 12 0 0.0 1.6 0.00 0.08 0.08 75 1011.8
20260508214543 12 0 0.0 4.8 0.00 0.08 0.08 74 1012.0
20260508213039 11 0 0.0 3.2 0.05 0.08 0.08 75 1011.7
20260508211540 11 0 0.0 1.6 0.05 0.08 0.08 79 1011.7
20260508210040 11 130 0.0 4.8 0.05 0.08 0.08 79 1011.8
20260508204539 11 41 1.6 16.1 0.05 0.08 0.08 75 1012.1
20260508203037 13 353 6.4 20.9 0.00 0.03 0.03 57 1012.2
20260508201540 14 133 0.0 3.2 0.00 0.03 0.03 57 1011.4
20260508200039 14 113 0.0 3.2 0.00 0.03 0.03 60 1011.6
20260508194535 13 0 0.0 1.6 0.00 0.03 0.03 61 1011.7
20260508193039 13 0 0.0 1.6 0.03 0.03 0.03 58 1011.8
20260508191547 13 0 0.0 3.2 0.03 0.03 0.03 57 1011.8
20260508190100 13 41 0.0 8.0 0.03 0.03 0.03 58 1011.7
20260508184541 13 316 0.0 8.0 0.03 0.03 0.03 68 1011.9
20260508183042 15 150 0.0 4.8 0.00 0.00 0.00 54 1011.9
20260508181544 15 39 3.2 11.3 0.00 0.00 0.00 48 1011.9
20260508180038 15 252 1.6 6.4 0.00 0.00 0.00 51 1012.2
20260508174543 14 0 4.8 16.1 0.00 0.00 0.00 53 1012.2
20260508173035 13 264 1.6 12.9 0.00 0.00 0.00 63 1012.5
20260508171542 13 354 3.2 17.7 0.00 0.00 0.00 55 1012.8
20260508170037 14 255 3.2 14.5 0.00 0.00 0.00 48 1012.6
20260508164537 14 288 1.6 8.0 0.00 0.00 0.00 48 1012.6
20260508163050 14 312 4.8 14.5 0.00 0.00 0.00 47 1012.7
20260508161552 14 281 4.8 17.7 0.00 0.00 0.00 46 1012.7
20260508160039 14 287 4.8 22.5 0.00 0.00 0.00 48 1012.9
20260508154538 15 292 4.8 9.7 0.00 0.00 0.00 46 1012.8
20260508153052 14 7 4.8 17.7 0.00 0.00 0.00 48 1012.9
20260508151534 14 212 1.6 19.3 0.00 0.00 0.00 49 1012.8
20260508150037 13 236 6.4 16.1 0.00 0.00 0.00 47 1012.5
20260508144540 13 315 4.8 14.5 0.00 0.00 0.00 49 1012.4
20260508143057 13 120 3.2 12.9 0.00 0.00 0.00 50 1012.8
20260508141540 12 347 3.2 14.5 0.00 0.00 0.00 51 1013.0
20260508140039 12 318 4.8 8.0 0.00 0.00 0.00 52 1013.1
20260508134538 11 300 3.2 11.3 0.00 0.00 0.00 54 1013.3
20260508133035 11 295 1.6 8.0 0.00 0.00 0.00 55 1013.4
20260508131537 10 0 1.6 8.0 0.00 0.00 0.00 57 1013.6
20260508130042 9 301 1.6 9.7 0.00 0.00 0.00 62 1013.6
20260508124537 7 0 0.0 1.6 0.00 0.00 0.00 74 1013.5
20260508123048 6 0 0.0 0.0 0.00 0.00 0.00 79 1013.8
20260508121537 5 0 0.0 0.0 0.00 0.00 0.00 78 1013.8
20260508120037 5 0 0.0 0.0 0.00 0.00 0.00 77 1013.8
20260508114540 5 0 0.0 0.0 0.00 0.00 0.00 78 1013.9
20260508113040 4 0 0.0 0.0 0.00 0.00 0.00 82 1014.1
20260508111540 3 0 0.0 0.0 0.00 0.00 0.00 86 1014.0
20260508110038 2 0 0.0 0.0 0.00 0.00 0.00 86 1013.9
20260508104536 2 0 0.0 0.0 0.00 0.00 0.00 86 1013.9
20260508103043 2 0 0.0 0.0 0.00 0.00 0.00 88 1013.6
20260508101541 2 0 0.0 0.0 0.00 0.00 0.00 89 1013.6
20260508100056 1 0 0.0 0.0 0.00 0.00 0.00 88 1013.4
20260508094541 1 0 0.0 0.0 0.00 0.00 0.00 89 1013.4
20260508093039 1 0 0.0 0.0 0.00 0.00 0.00 88 1013.3
20260508091552 1 0 0.0 0.0 0.00 0.00 0.00 88 1013.3
20260508090049 1 0 0.0 0.0 0.00 0.00 0.00 87 1013.2
20260508084539 2 0 0.0 0.0 0.00 0.00 0.00 86 1013.3
20260508083040 2 0 0.0 0.0 0.00 0.00 0.00 85 1013.2
20260508081553 3 0 0.0 0.0 0.00 0.00 0.00 84 1013.2
20260508080035 3 0 0.0 0.0 0.00 0.00 0.00 84 1013.2
20260508074537 3 0 0.0 0.0 0.00 0.00 0.00 86 1013.1
20260508073044 3 0 0.0 0.0 0.00 0.00 0.00 87 1013.1
20260508071541 3 0 0.0 0.0 0.00 0.00 0.00 89 1013.3
20260508070040 3 0 0.0 0.0 0.00 0.00 0.00 89 1013.4